Starlink 31532

operational
NORAD ID: 59349 Int'l Des: 2024-060 Owner: SPXS Country: US Constellation: starlink
LEOCIRCULAR

Starlink 31532について

説明を読み込み中...

リアルタイム位置

3D地球を読み込み中...

次回通過

高度履歴

Altitude vs Time

uPlot chart will show altitude changes over time

軌道要素

1 59349U 24060B 26036.39425925 .00002423 00000-0 97532-4 0 9999
2 59349 43.0030 82.2470 0001405 271.7201 88.3489 15.27586730105173
Epoch: Feb 5, 2026 • Age: 12 hours

現在のステータス

高度 489.2 km
速度 7.62 km/s
衛星直下点 -26.66°S, 165.37°W
打ち上げ日 Mar 31, 2024
運用期間 1.8 years
タイプ internet

技術仕様

分類 Payload
質量 730.00 kg
乾燥質量 700.00 kg
総質量 730.00 kg
長さ 0.30 m
直径 4.10 m
スパン 29.00 m
形状 Box + pan
製造者 SPXS
バスタイプ Starlink V2M
フェーズステータス In Orbit
所有者/国 SPXS/US

大規模コンステレーション

Loading constellations...